Weather History for PAHN - April, 2013

Change the Weather History Date:

Thursday, April 25, 2013

  Actual Average Record
Temperature  
Mean Temperature 36 °F -  
Max Temperature 39 °F 49 °F 72 °F (2003)
Min Temperature 33 °F 35 °F 26 °F (1984)
Degree Days  
Heating Degree Days 29    
Moisture  
Dew Point 33 °F    
Average Humidity 94    
Maximum Humidity 100    
Minimum Humidity 92    
Precipitation  
Precipitation 0.90 in - - ()
Sea Level Pressure  
Sea Level Pressure 29.57 in    
Wind  
Wind Speed 7 mph (NW)    
Max Wind Speed 13 mph    
Max Gust Speed 23 mph    
Visibility 5 miles    
Events Rain , Snow    
Averages and records for this station are not official NWS values.
T = Trace of Precipitation, MM = Missing Value Source: NWS Daily Summary

Daily Weather History Graph

Daily Weather History Graph

Search for Another Location

Airport or City:

Trip Planner

Search our weather history database for the weather conditions in past years. The results will help you decide how hot, cold, wet, or windy it might be!

Date:

Astronomy

Apr. 25, 2013 Rise Set
Actual Time 5:18 AM AKDT 8:42 PM AKDT
Civil Twilight 4:30 AM AKDT 9:31 PM AKDT
Nautical Twilight 3:21 AM AKDT 10:41 PM AKDT
Astronomical Twilight 1:32 AM AKDT 12:27 AM AKDT
Moon 9:15 PM AKDT 5:07 AM AKDT
Length of Visible Light 17h 01m
Length of Day
15h 24m
Full, 100% of the Moon is Illuminated
Apr 25
Full
May 2
Last Quarter
May 9
New
May 17
First Quarter
May 24
Full

Hourly Weather History & Observations

Time (AKDT) Temp. Windchill Dew Point Humidity Pressure Visibility Wind Dir Wind Speed Gust Speed Precip Events Conditions
12:54 AM 39.9 °F 33.9 °F 39.0 °F 97% 29.69 in 10.0 mi East 9.2 mph 16.1 mph 0.00 in   Overcast
1:54 AM 39.9 °F 33.9 °F 39.0 °F 97% 29.65 in 10.0 mi East 9.2 mph 20.7 mph 0.00 in   Overcast
2:54 AM 39.9 °F 32.5 °F 37.9 °F 93% 29.62 in 10.0 mi ESE 12.7 mph 19.6 mph 0.00 in   Overcast
3:51 AM 39.2 °F 33.6 °F 37.4 °F 93% 29.59 in 10.0 mi East 8.1 mph 19.6 mph 0.00 in Rain Light Rain
3:54 AM 39.9 °F 33.4 °F 37.9 °F 93% 29.60 in 10.0 mi East 10.4 mph 19.6 mph 0.01 in Rain Light Rain
4:54 AM 39.9 °F 33.4 °F 37.9 °F 93% 29.59 in 10.0 mi East 10.4 mph 23.0 mph 0.01 in Rain Light Rain
5:54 AM 36.0 °F - 34.0 °F 93% 29.57 in 10.0 mi Calm Calm - 0.01 in Rain Light Rain
6:35 AM 33.8 °F 29.6 °F 33.8 °F 100% 29.56 in 5.0 mi Variable 4.6 mph - 0.05 in Rain Rain
6:54 AM 34.0 °F 28.0 °F 32.0 °F 92% 29.57 in 4.0 mi WNW 6.9 mph - 0.10 in Rain Rain
7:15 AM 33.8 °F 29.6 °F 32.0 °F 93% 29.56 in 3.0 mi West 4.6 mph - 0.04 in Rain Rain
7:22 AM 33.8 °F 28.6 °F 32.0 °F 93% 29.56 in 2.0 mi WNW 5.8 mph - 0.05 in Snow Light Snow
7:25 AM 33.8 °F 29.6 °F 32.0 °F 93% 29.56 in 1.8 mi WNW 4.6 mph - 0.06 in Snow Light Snow
7:52 AM 33.8 °F 29.6 °F 32.0 °F 93% 29.56 in 1.0 mi WNW 4.6 mph - 0.10 in Snow Light Snow
7:54 AM 33.1 °F 28.7 °F 32.0 °F 96% 29.57 in 1.0 mi WNW 4.6 mph - 0.10 in Snow Light Snow
7:59 AM 33.8 °F - 32.0 °F 93% 29.56 in 0.8 mi Calm Calm - 0.01 in Snow Light Snow
8:54 AM 33.1 °F 30.0 °F 32.0 °F 96% 29.56 in 0.8 mi NW 3.5 mph - 0.11 in Snow Light Snow
9:54 AM 33.1 °F 25.5 °F 32.0 °F 96% 29.56 in 0.8 mi WNW 9.2 mph - 0.08 in Snow Light Snow
10:08 AM 33.8 °F 27.7 °F 32.0 °F 93% 29.55 in 1.2 mi WNW 6.9 mph - 0.01 in Snow Light Snow
10:54 AM 33.1 °F 26.1 °F 32.0 °F 96% 29.56 in 1.2 mi NW 8.1 mph - 0.06 in Snow Light Snow
11:49 AM 33.8 °F 27.7 °F 32.0 °F 93% 29.55 in 2.0 mi WNW 6.9 mph - 0.05 in Snow Light Snow
11:54 AM 33.1 °F 26.9 °F 32.0 °F 96% 29.56 in 2.0 mi WNW 6.9 mph - 0.05 in Snow Light Snow
12:04 PM 33.8 °F 27.0 °F 32.0 °F 93% 29.55 in 1.8 mi WNW 8.1 mph - 0.01 in Snow Light Snow
12:54 PM 33.1 °F 27.7 °F 32.0 °F 96% 29.56 in 1.5 mi WNW 5.8 mph - 0.05 in Snow Light Snow
1:23 PM 33.8 °F 28.6 °F 32.0 °F 93% 29.55 in 2.0 mi WNW 5.8 mph - 0.02 in Snow Light Snow
1:54 PM 33.1 °F 30.0 °F 32.0 °F 96% 29.56 in 1.8 mi WNW 3.5 mph - 0.04 in Snow Light Snow
2:08 PM 33.8 °F - 32.0 °F 93% 29.55 in 2.0 mi Calm Calm - 0.02 in Snow Light Snow
2:15 PM 33.8 °F - 33.8 °F 100% 29.55 in 1.5 mi Calm Calm - 0.02 in Snow Light Snow
2:54 PM 33.1 °F 27.7 °F 32.0 °F 96% 29.56 in 2.0 mi WNW 5.8 mph - 0.08 in Snow Light Snow
3:11 PM 33.8 °F 28.6 °F 32.0 °F 93% 29.55 in 4.0 mi WNW 5.8 mph - 0.02 in Rain Light Rain
3:54 PM 33.1 °F 26.9 °F 32.0 °F 96% 29.56 in 4.0 mi WNW 6.9 mph - 0.07 in Snow Light Snow
4:54 PM 34.0 °F 28.0 °F 33.1 °F 96% 29.56 in 5.0 mi WNW 6.9 mph - 0.02 in Rain Light Rain
5:54 PM 35.1 °F 29.3 °F 33.1 °F 92% 29.57 in 7.0 mi NW 6.9 mph - 0.02 in Rain Light Rain
6:54 PM 34.0 °F 27.2 °F 33.1 °F 96% 29.57 in 9.0 mi WNW 8.1 mph - 0.04 in Rain Light Rain
7:54 PM 34.0 °F 26.0 °F 32.0 °F 92% 29.57 in 7.0 mi WNW 10.4 mph - 0.02 in Rain Light Rain
8:09 PM 33.8 °F 25.3 °F 32.0 °F 93% 29.56 in 5.0 mi NW 11.5 mph - 0.01 in Snow Light Snow
8:54 PM 34.0 °F 26.0 °F 33.1 °F 96% 29.58 in 10.0 mi NW 10.4 mph - 0.02 in Rain Light Rain
9:54 PM 34.0 °F 26.6 °F 32.0 °F 92% 29.58 in 10.0 mi WNW 9.2 mph - 0.01 in Rain Light Rain
10:21 PM 33.8 °F 26.4 °F 32.0 °F 93% 29.57 in 10.0 mi NW 9.2 mph - 0.00 in Rain Light Rain
10:43 PM 33.8 °F 25.8 °F 32.0 °F 93% 29.57 in 10.0 mi NW 10.4 mph - 0.00 in Rain Light Rain
10:54 PM 34.0 °F 26.0 °F 32.0 °F 92% 29.58 in 10.0 mi WNW 10.4 mph - 0.00 in   Overcast
11:23 PM 33.8 °F 24.8 °F 32.0 °F 93% 29.56 in 10.0 mi WNW 12.7 mph - 0.00 in Rain Light Rain
11:54 PM 34.0 °F 25.0 °F 32.0 °F 92% 29.58 in 10.0 mi WNW 12.7 mph - 0.00 in Rain Light Rain